SCP
0 0 -0 -0 -0 -0 -0 -0 -0 -0 -0 -0 -0 -0 -0 -0 -0 -0 -0 -0 -0 -0 -0 -0 -0 -0 -0 -0 -0 -0 -0 -0 -0 -0 -0 -0 -0 -0 0 0 0 0 0
0 0 -0 -0 -0 0 -0 -0 -0 -0 -0 -0 -0 -0 -0 -0 -0 -0 -0 -0 -0 -0 -0 -0 -0 -0 -0 -0 -0 -0 -0 -0 -0 -0 -0 -0 -0 0 0 0 0 0 0
0 0 0 -0 -0 -0 -0 -0 -0 -0 -0 -0 -0 -0 -0 -0 -0 -0 -0 -0 -0 -0 -0 -0 -0 -0 -0 -0 0 -0 -0 -0 -0 -0 -0 -0 -0 0 0 0 0 0 0
0 0 0 -0 -0 -0 -0 -0 -0 -0 -0 -0 -0 -0 -0 -0 -0 -0 -0 -0 -0 -0 -0 -0 -0 -0 -0 -0 -0 -0 -0 -0 -0 0 -0 -0 -0 0 0 0 0 0 0
0 0 0 -0 -0 -0 -0 -0 -0 -0 -0 -0 -0 -0 -0 -0 -0 -0 -0 -0 -0 -0 -0 -0 -0 -0 -0 -0 -0 -0 -0 -0 0 -0 -0 -0 0 0 0 0 0 0 0
0 0 0 0 -0 -0 -0 -0 -0 -0 -0 -0 -0 -0 -0 -0 -0 -0 -0 -0 -0 -0 -0 -0 -0 0 0 -0 0 -0 0 0 0 0 -0 0 0 0 0 0 0 0 0
0 0 0 0 0 -0 -0 -0 -0 -0 -0 -0 -0 -0 -0 -0 -0 -0 -0 -0 -0 -0 -0 -0 0 0 0 0 0 0 0 0 0 0 0 0 0 0 0 0 0 0 0
0 0 0 0 0 0 -0 -0 -0 -0 -0 -0 0 0 -0 -0 -0 -0 -0 -0 -0 -0 -0 0 0 0 0 0 0 0 0 0 0 0 0 0 0 0 0 0 0 0 0
0 0 0 0 0 0 0 0 0 0 -0 0 0 0 0 0 0 -0 0 0 0 0 0 0 0 0 0 0 0 0 0 0 0 0 0 0 0 0 0 0 0 0 0
0 0 0 0 0 0 0 0 0 0 0 0 0 0 0 0 0 0 0 0 0 0 0 0 0 0 0 0 0 0 0 0 0 0 0 0 0 0 0 0 0 0 0
0 0 0 0 0 0 0 0 0 0 0 0 0 0 0 0 0 0 0 0 0 0 0 0 0 0 0 0 0 0 0 0 0 0 0 0 0 0 0 0 0 0 0
0 0 0 0 0 0 0 0 0 0 0 0 0 0 0 0 0 0 0 0 0 0 0 0 0 0 0 0 0 0 0 0 0 0 0 0 0 -0 0 0 0 0 0
0 0 0 0 0 0 0 0 0 0 0 0 0 0 0 0 0 0 0 0 0 0 0 0 0 0 0 0 0 0 0 0 0 0 0 0 0 0 0 0 0 0 0
0 0 0 0 0 0 0 0 0 0 0 0 0 0 0 0 0 0 0 0 0 0 0 0 0 0 0 0 0 0 0 0 0 0 0 0 0 0 0 0 0 0 0
0 0 0 0 0 0 0 0 0 0 0 0 0 0 0 0 0 0 0 0 0 0 0 0 0 0 0 0 0 0 0 0 0 0 0 0 0 0 0 0 0 0 0
0 0 0 0 0 0 0 0 0 0 0 0 0 0 0 0 0 0 0 0 0 0 0 0 0 0 0 0 0 0 0 0 0 0 0 0 0 0 0 0 0 0 0
0 0 0 0 0 0 0 0 0 0 0 0 0 0 0 0 0 0 0 0 0 0 0 0 0 0 0 0 0 0 0 0 0 0 0 0 0 0 0 0 0 0 0
0 0 0 0 0 0 0 0 0 0 0 0 0 0 0 0 0 0 0 0 0 0 0 0 0 0 0 0 0 0 0 0 0 0 0 0 0 0 0 0 0 0 0
0 0 0 0 0 0 0 0 0 0 0 0 0 0 0 0 0 0 0 0 0 0 0 0 0 0 0 0 0 0 0 0 0 0 0 0 0 0 0 0 0 0 0
0 0 0 0 0 0 0 0 0 0 0 0 0 0 0 0 0 0 0 0 0 0 0 0 0 0 0 0 0 0 0 0 0 0 0 0 0 0 0 0 0 0 0
0 0 0 0 0 0 0 0 0 0 0 0 0 0 0 0 0 0 0 0 0 0 0 0 0 0 0 0 0 0 0 0 0 0 0 0 0 0 0 0 0 0 0
0 0 0 0 0 0 0 0 0 0 0 0 0 0 0 0 0 0 0 0 0 0 0 0 0 0 0 0 0 0 0 0 0 0 0 0 0 0 0 0 0 0 0
0 0 0 0 0 0 0 0 0 0 0 0 0 0 0 0 0 0 0 0 0 0 0 0 0 0 0 0 0 0 0 0 0 0 0 0 0 0 0 0 0 0 0
0 0 0 0 0 0 0 0 0 0 0 0 0 0 0 0 0 0 0 0 0 0 0 0 0 0 0 0 0 0 0 0 0 0 0 0 0 0 0 0 0 0 0
0 0 0 0 0 0 0 0 0 0 0 0 0 0 0 0 0 0 0 0 0 0 0 0 0 0 0 0 0 0 0 0 0 0 0 0 0 0 0 0 0 0 0
0 0 0 0 0 0 0 0 0 0 0 0 0 0 0 0 0 0 0 0 0 0 0 0 0 0 0 0 0 0 0 0 0 0 0 0 0 0 0 0 0 0 0
Wind_Speed_500mb
26 24 23 24 25 16 7 2 2 1 8 14 19 22 26 21 19 12 8 14 23 21 21 23 24 22 33 30 27 24 25 22 19 16 17 18 9 4 6 9 11 13 16
26 29 26 24 22 13 8 6 5 5 10 17 19 17 17 18 14 10 11 23 24 19 20 20 20 33 31 26 19 15 15 14 14 8 14 10 5 8 6 7 14 21 22
27 30 32 28 17 11 10 8 7 8 11 17 19 18 14 13 14 14 20 23 21 20 21 22 24 23 23 22 18 14 11 9 9 10 11 12 10 7 5 14 21 21 22
25 28 27 21 14 11 9 8 7 9 17 22 19 20 15 13 13 12 21 22 20 15 16 21 20 19 23 21 13 12 7 6 6 11 13 13 10 3 9 12 18 18 20
26 23 21 17 14 10 9 8 8 12 26 30 21 15 18 15 8 9 15 16 13 17 16 14 16 15 9 17 16 10 5 2 7 13 19 18 11 7 9 10 15 15 18
23 23 20 17 13 11 7 6 8 13 23 29 25 19 16 16 9 11 10 11 12 14 11 11 11 6 11 26 20 7 6 5 10 16 19 20 0 11 11 9 11 15 16
20 23 21 18 14 11 7 5 6 13 13 19 23 18 21 19 14 8 9 15 12 10 8 8 7 5 6 17 20 12 9 9 10 13 19 10 5 9 7 11 11 12 11
17 19 22 21 17 13 9 8 8 13 13 17 18 23 19 22 17 13 15 16 11 10 8 5 4 4 6 7 12 14 12 9 10 15 15 12 16 4 4 4 4 8 9
17 19 22 23 21 18 14 11 12 12 17 21 16 22 21 20 17 13 19 18 13 13 11 9 6 6 6 8 10 13 11 10 13 13 16 15 16 11 3 1 2 3 3
21 21 23 24 26 24 20 17 16 16 16 17 19 21 24 24 22 22 22 15 15 16 14 12 10 10 9 9 12 13 14 12 14 14 16 16 21 10 5 3 3 2 2
29 29 31 30 26 29 28 25 23 22 20 19 18 20 23 26 23 24 25 21 19 18 20 16 15 15 15 14 15 16 16 15 15 15 16 15 19 7 9 8 7 6 5
32 31 30 32 32 32 34 33 31 28 27 24 23 23 24 25 27 23 22 26 26 26 23 22 20 20 19 19 19 19 19 18 16 15 16 17 17 9 16 19 11 11 9
32 36 33 31 33 36 37 37 38 37 34 31 29 27 26 27 28 30 29 29 29 28 29 27 24 24 24 24 23 23 23 21 19 19 17 18 19 15 13 22 27 20 15
36 39 38 37 35 38 39 40 41 42 42 40 34 32 32 31 32 32 32 32 33 31 27 30 29 29 29 29 29 30 28 27 25 24 21 20 20 18 14 16 25 23 18
43 42 44 42 42 40 46 45 45 46 44 44 43 39 37 35 35 35 35 35 36 36 34 34 34 34 34 34 35 36 35 31 31 32 28 24 23 21 19 17 21 25 25
48 47 46 48 47 48 50 48 50 50 47 46 46 46 42 40 39 39 39 39 38 39 37 38 40 40 41 41 41 41 40 38 34 33 31 29 28 26 25 23 19 28 29
54 53 52 52 53 55 56 55 51 53 53 53 50 48 48 45 43 42 42 42 41 40 41 44 45 47 49 49 50 47 45 43 41 37 35 36 35 33 31 30 27 25 29
57 58 53 55 58 58 60 60 59 55 54 57 57 55 54 54 49 48 47 46 42 43 46 50 48 51 53 54 54 52 51 48 46 45 42 41 43 42 38 36 35 34 33
62 61 61 59 61 59 60 62 64 62 61 56 57 60 59 58 59 56 54 51 47 48 51 53 54 55 59 58 58 57 56 55 53 52 53 52 49 51 49 45 44 42 42
56 65 66 67 62 61 60 63 66 68 70 67 62 61 61 60 62 65 62 57 54 54 57 58 60 60 62 63 62 63 63 61 61 61 63 60 60 57 56 56 53 52 49
67 62 69 72 66 67 67 67 69 70 71 70 70 68 63 60 64 66 68 65 62 62 62 63 62 65 66 65 64 70 73 71 71 70 70 67 68 64 61 58 63 62 59
80 75 66 73 69 71 73 74 73 73 70 69 70 70 70 69 69 67 68 72 72 70 68 69 67 69 72 70 69 68 63 68 73 66 64 66 64 65 67 64 65 66 66
70 76 72 65 66 68 68 71 75 78 78 73 68 68 67 68 71 71 71 71 74 78 77 73 73 70 73 76 74 68 25 33 45 47 39 40 39 41 44 47 51 56 62
52 61 71 62 63 63 61 62 68 74 82 79 75 71 69 70 67 64 65 69 71 76 80 80 77 78 75 76 78 82 81 82 62 62 52 35 39 48 45 46 49 51 51
44 50 52 58 55 51 51 52 54 59 68 75 76 76 76 72 72 70 65 63 68 71 72 74 79 80 82 86 85 81 82 86 85 88 79 77 80 79 72 64 58 56 53
1 13 19 25 31 38 43 40 42 45 47 52 57 63 66 73 74 74 73 71 67 68 70 73 73 77 81 82 88 92 90 77 74 78 83 97 90 95 88 81 74 69 64
Wind_Direction_500mb
168 166 165 173 174 175 193 238 334 58 141 131 134 134 158 164 173 164 127 108 110 107 103 107 115 108 109 107 108 110 103 108 97 74 63 57 110 28 357 356 12 38 50
176 167 168 176 181 199 225 238 247 171 158 149 149 146 162 176 166 141 118 113 109 105 103 103 107 113 113 105 89 98 114 93 79 36 42 31 360 323 331 27 56 68 65
177 172 172 185 200 219 237 246 230 176 166 167 141 125 134 153 164 155 133 120 115 107 108 104 112 118 117 110 87 99 88 71 35 11 1 353 342 340 83 76 77 74 73
179 183 183 196 212 223 233 226 219 194 160 150 148 152 156 147 145 146 140 126 121 122 112 124 132 121 124 92 91 98 101 41 338 337 329 341 337 358 82 80 91 84 87
182 192 197 203 211 223 221 222 210 187 166 146 161 163 150 178 169 137 153 137 148 134 126 131 144 144 133 116 120 112 118 304 327 319 313 320 335 65 81 91 93 96 89
187 200 206 204 215 222 225 226 194 185 177 184 160 155 155 197 203 148 165 161 158 134 136 140 144 155 111 120 135 167 157 239 289 302 321 319 215 70 82 82 72 98 88
204 207 213 212 222 225 223 228 215 180 187 175 165 167 158 197 205 202 181 170 168 161 145 142 143 163 152 139 148 189 219 238 279 301 319 18 41 74 76 77 86 90 86
208 225 225 222 225 230 228 232 225 194 175 182 187 164 186 207 218 222 201 194 190 163 170 196 185 207 215 193 192 223 267 283 319 327 339 348 341 80 61 86 92 94 97
215 227 235 234 236 234 231 233 229 222 186 186 197 188 179 198 207 217 199 211 198 193 197 214 237 240 236 242 244 254 274 299 311 332 357 352 358 329 291 281 81 129 101
235 235 237 240 245 246 242 235 230 226 229 213 215 209 203 206 204 218 243 203 224 221 217 224 234 251 261 252 251 253 259 286 305 327 345 348 346 316 270 279 274 315 313
235 241 243 243 249 252 249 245 236 232 234 241 234 225 227 233 227 224 230 228 230 239 218 229 238 247 258 266 262 261 269 283 291 310 327 335 341 310 272 306 289 293 299
241 243 249 246 255 254 249 251 246 241 240 242 247 243 238 241 247 249 242 239 221 226 233 228 239 247 256 263 267 268 275 273 282 291 309 318 327 329 284 300 299 292 282
256 250 259 262 262 254 252 255 254 251 249 247 247 247 246 243 243 248 246 245 246 246 240 238 241 249 256 257 260 269 274 275 277 283 291 305 315 318 261 281 287 294 273
260 258 259 261 259 252 254 258 259 257 256 254 254 254 251 251 251 253 253 253 252 250 252 244 244 248 255 258 261 263 270 270 267 276 279 291 301 302 297 245 272 285 274
260 261 260 259 256 253 252 256 258 257 258 259 256 255 257 258 259 259 258 255 253 250 251 250 252 254 257 261 262 267 271 273 270 272 270 278 287 289 284 281 258 271 266
266 265 262 261 259 254 254 257 259 259 261 260 259 258 259 261 263 263 260 257 256 254 255 257 258 259 259 259 261 264 269 273 277 274 271 270 276 278 278 276 273 253 262
271 268 265 265 262 258 258 259 261 260 260 262 262 263 263 263 264 265 263 261 258 259 259 260 260 260 259 260 263 265 268 271 272 274 275 272 270 271 271 271 270 268 251
269 267 269 265 263 261 261 261 261 262 260 261 263 263 263 266 267 265 263 263 263 261 260 260 263 262 263 262 265 266 267 268 270 272 272 273 272 268 268 268 266 265 263
270 267 268 266 263 264 262 261 262 263 262 262 263 264 263 263 266 267 268 269 266 265 263 263 265 265 266 267 268 270 269 268 270 272 271 271 270 268 267 266 265 265 262
275 266 264 264 262 260 262 262 263 262 262 261 260 261 264 264 265 266 269 271 269 267 266 266 266 267 268 271 272 272 271 270 269 269 269 271 270 268 267 266 264 264 263
271 276 262 262 262 259 257 258 258 261 261 264 264 266 267 267 266 267 267 270 270 269 270 270 270 270 270 270 273 273 274 274 271 270 272 272 269 269 268 269 266 264 262
266 270 272 261 261 266 262 261 260 264 265 270 271 270 270 269 268 267 267 270 272 271 269 269 269 271 272 270 267 271 281 282 278 277 276 274 275 273 268 269 268 265 263
267 263 265 268 266 267 268 265 261 261 263 264 271 273 273 273 273 273 270 270 271 273 272 272 272 270 272 274 269 259 262 264 284 288 282 277 275 269 270 272 272 269 263
277 265 261 267 272 276 276 275 270 265 265 270 272 277 282 284 284 283 280 276 273 274 273 273 273 273 269 268 273 267 262 262 267 283 281 275 267 267 270 271 271 275 270
274 267 260 264 269 261 258 267 272 272 271 273 276 279 281 282 284 286 285 285 281 277 278 275 274 273 271 269 267 270 273 267 264 259 272 274 276 275 275 273 274 273 270
284 272 260 256 258 253 254 260 263 271 270 272 277 282 285 288 287 286 287 286 287 285 283 282 279 276 277 273 270 268 268 265 267 263 258 273 270 281 283 282 278 275 272
Wind_Speed_850mb
26 24 23 24 25 16 7 2 2 1 8 14 19 22 26 21 19 12 8 14 23 21 21 23 24 22 33 30 27 24 25 22 19 16 17 18 9 4 6 9 11 13 16
26 29 26 24 22 13 8 6 5 5 10 17 19 17 17 18 14 10 11 23 24 19 20 20 20 33 31 26 19 15 15 14 14 8 14 10 5 8 6 7 14 21 22
27 30 32 28 17 11 10 8 7 8 11 17 19 18 14 13 14 14 20 23 21 20 21 22 24 23 23 22 18 14 11 9 9 10 11 12 10 7 5 14 21 21 22
25 28 27 21 14 11 9 8 7 9 17 22 19 20 15 13 13 12 21 22 20 15 16 21 20 19 23 21 13 12 7 6 6 11 13 13 10 3 9 12 18 18 20
26 23 21 17 14 10 9 8 8 12 26 30 21 15 18 15 8 9 15 16 13 17 16 14 16 15 9 17 16 10 5 2 7 13 19 18 11 7 9 10 15 15 18
23 23 20 17 13 11 7 6 8 13 23 29 25 19 16 16 9 11 10 11 12 14 11 11 11 6 11 26 20 7 6 5 10 16 19 20 0 11 11 9 11 15 16
20 23 21 18 14 11 7 5 6 13 13 19 23 18 21 19 14 8 9 15 12 10 8 8 7 5 6 17 20 12 9 9 10 13 19 10 5 9 7 11 11 12 11
17 19 22 21 17 13 9 8 8 13 13 17 18 23 19 22 17 13 15 16 11 10 8 5 4 4 6 7 12 14 12 9 10 15 15 12 16 4 4 4 4 8 9
17 19 22 23 21 18 14 11 12 12 17 21 16 22 21 20 17 13 19 18 13 13 11 9 6 6 6 8 10 13 11 10 13 13 16 15 16 11 3 1 2 3 3
21 21 23 24 26 24 20 17 16 16 16 17 19 21 24 24 22 22 22 15 15 16 14 12 10 10 9 9 12 13 14 12 14 14 16 16 21 10 5 3 3 2 2
29 29 31 30 26 29 28 25 23 22 20 19 18 20 23 26 23 24 25 21 19 18 20 16 15 15 15 14 15 16 16 15 15 15 16 15 19 7 9 8 7 6 5
32 31 30 32 32 32 34 33 31 28 27 24 23 23 24 25 27 23 22 26 26 26 23 22 20 20 19 19 19 19 19 18 16 15 16 17 17 9 16 19 11 11 9
32 36 33 31 33 36 37 37 38 37 34 31 29 27 26 27 28 30 29 29 29 28 29 27 24 24 24 24 23 23 23 21 19 19 17 18 19 15 13 22 27 20 15
36 39 38 37 35 38 39 40 41 42 42 40 34 32 32 31 32 32 32 32 33 31 27 30 29 29 29 29 29 30 28 27 25 24 21 20 20 18 14 16 25 23 18
43 42 44 42 42 40 46 45 45 46 44 44 43 39 37 35 35 35 35 35 36 36 34 34 34 34 34 34 35 36 35 31 31 32 28 24 23 21 19 17 21 25 25
48 47 46 48 47 48 50 48 50 50 47 46 46 46 42 40 39 39 39 39 38 39 37 38 40 40 41 41 41 41 40 38 34 33 31 29 28 26 25 23 19 28 29
54 53 52 52 53 55 56 55 51 53 53 53 50 48 48 45 43 42 42 42 41 40 41 44 45 47 49 49 50 47 45 43 41 37 35 36 35 33 31 30 27 25 29
57 58 53 55 58 58 60 60 59 55 54 57 57 55 54 54 49 48 47 46 42 43 46 50 48 51 53 54 54 52 51 48 46 45 42 41 43 42 38 36 35 34 33
62 61 61 59 61 59 60 62 64 62 61 56 57 60 59 58 59 56 54 51 47 48 51 53 54 55 59 58 58 57 56 55 53 52 53 52 49 51 49 45 44 42 42
56 65 66 67 62 61 60 63 66 68 70 67 62 61 61 60 62 65 62 57 54 54 57 58 60 60 62 63 62 63 63 61 61 61 63 60 60 57 56 56 53 52 49
67 62 69 72 66 67 67 67 69 70 71 70 70 68 63 60 64 66 68 65 62 62 62 63 62 65 66 65 64 70 73 71 71 70 70 67 68 64 61 58 63 62 59
80 75 66 73 69 71 73 74 73 73 70 69 70 70 70 69 69 67 68 72 72 70 68 69 67 69 72 70 69 68 63 68 73 66 64 66 64 65 67 64 65 66 66
70 76 72 65 66 68 68 71 75 78 78 73 68 68 67 68 71 71 71 71 74 78 77 73 73 70 73 76 74 68 25 33 45 47 39 40 39 41 44 47 51 56 62
52 61 71 62 63 63 61 62 68 74 82 79 75 71 69 70 67 64 65 69 71 76 80 80 77 78 75 76 78 82 81 82 62 62 52 35 39 48 45 46 49 51 51
44 50 52 58 55 51 51 52 54 59 68 75 76 76 76 72 72 70 65 63 68 71 72 74 79 80 82 86 85 81 82 86 85 88 79 77 80 79 72 64 58 56 53
1 13 19 25 31 38 43 40 42 45 47 52 57 63 66 73 74 74 73 71 67 68 70 73 73 77 81 82 88 92 90 77 74 78 83 97 90 95 88 81 74 69 64
Wind_Direction_850mb
168 166 165 173 174 175 193 238 334 58 141 131 134 134 158 164 173 164 127 108 110 107 103 107 115 108 109 107 108 110 103 108 97 74 63 57 110 28 357 356 12 38 50
176 167 168 176 181 199 225 238 247 171 158 149 149 146 162 176 166 141 118 113 109 105 103 103 107 113 113 105 89 98 114 93 79 36 42 31 360 323 331 27 56 68 65
177 172 172 185 200 219 237 246 230 176 166 167 141 125 134 153 164 155 133 120 115 107 108 104 112 118 117 110 87 99 88 71 35 11 1 353 342 340 83 76 77 74 73
179 183 183 196 212 223 233 226 219 194 160 150 148 152 156 147 145 146 140 126 121 122 112 124 132 121 124 92 91 98 101 41 338 337 329 341 337 358 82 80 91 84 87
182 192 197 203 211 223 221 222 210 187 166 146 161 163 150 178 169 137 153 137 148 134 126 131 144 144 133 116 120 112 118 304 327 319 313 320 335 65 81 91 93 96 89
187 200 206 204 215 222 225 226 194 185 177 184 160 155 155 197 203 148 165 161 158 134 136 140 144 155 111 120 135 167 157 239 289 302 321 319 215 70 82 82 72 98 88
204 207 213 212 222 225 223 228 215 180 187 175 165 167 158 197 205 202 181 170 168 161 145 142 143 163 152 139 148 189 219 238 279 301 319 18 41 74 76 77 86 90 86
208 225 225 222 225 230 228 232 225 194 175 182 187 164 186 207 218 222 201 194 190 163 170 196 185 207 215 193 192 223 267 283 319 327 339 348 341 80 61 86 92 94 97
215 227 235 234 236 234 231 233 229 222 186 186 197 188 179 198 207 217 199 211 198 193 197 214 237 240 236 242 244 254 274 299 311 332 357 352 358 329 291 281 81 129 101
235 235 237 240 245 246 242 235 230 226 229 213 215 209 203 206 204 218 243 203 224 221 217 224 234 251 261 252 251 253 259 286 305 327 345 348 346 316 270 279 274 315 313
235 241 243 243 249 252 249 245 236 232 234 241 234 225 227 233 227 224 230 228 230 239 218 229 238 247 258 266 262 261 269 283 291 310 327 335 341 310 272 306 289 293 299
241 243 249 246 255 254 249 251 246 241 240 242 247 243 238 241 247 249 242 239 221 226 233 228 239 247 256 263 267 268 275 273 282 291 309 318 327 329 284 300 299 292 282
256 250 259 262 262 254 252 255 254 251 249 247 247 247 246 243 243 248 246 245 246 246 240 238 241 249 256 257 260 269 274 275 277 283 291 305 315 318 261 281 287 294 273
260 258 259 261 259 252 254 258 259 257 256 254 254 254 251 251 251 253 253 253 252 250 252 244 244 248 255 258 261 263 270 270 267 276 279 291 301 302 297 245 272 285 274
260 261 260 259 256 253 252 256 258 257 258 259 256 255 257 258 259 259 258 255 253 250 251 250 252 254 257 261 262 267 271 273 270 272 270 278 287 289 284 281 258 271 266
266 265 262 261 259 254 254 257 259 259 261 260 259 258 259 261 263 263 260 257 256 254 255 257 258 259 259 259 261 264 269 273 277 274 271 270 276 278 278 276 273 253 262
271 268 265 265 262 258 258 259 261 260 260 262 262 263 263 263 264 265 263 261 258 259 259 260 260 260 259 260 263 265 268 271 272 274 275 272 270 271 271 271 270 268 251
269 267 269 265 263 261 261 261 261 262 260 261 263 263 263 266 267 265 263 263 263 261 260 260 263 262 263 262 265 266 267 268 270 272 272 273 272 268 268 268 266 265 263
270 267 268 266 263 264 262 261 262 263 262 262 263 264 263 263 266 267 268 269 266 265 263 263 265 265 266 267 268 270 269 268 270 272 271 271 270 268 267 266 265 265 262
275 266 264 264 262 260 262 262 263 262 262 261 260 261 264 264 265 266 269 271 269 267 266 266 266 267 268 271 272 272 271 270 269 269 269 271 270 268 267 266 264 264 263
271 276 262 262 262 259 257 258 258 261 261 264 264 266 267 267 266 267 267 270 270 269 270 270 270 270 270 270 273 273 274 274 271 270 272 272 269 269 268 269 266 264 262
266 270 272 261 261 266 262 261 260 264 265 270 271 270 270 269 268 267 267 270 272 271 269 269 269 271 272 270 267 271 281 282 278 277 276 274 275 273 268 269 268 265 263
267 263 265 268 266 267 268 265 261 261 263 264 271 273 273 273 273 273 270 270 271 273 272 272 272 270 272 274 269 259 262 264 284 288 282 277 275 269 270 272 272 269 263
277 265 261 267 272 276 276 275 270 265 265 270 272 277 282 284 284 283 280 276 273 274 273 273 273 273 269 268 273 267 262 262 267 283 281 275 267 267 270 271 271 275 270
274 267 260 264 269 261 258 267 272 272 271 273 276 279 281 282 284 286 285 285 281 277 278 275 274 273 271 269 267 270 273 267 264 259 272 274 276 275 275 273 274 273 270
284 272 260 256 258 253 254 260 263 271 270 272 277 282 285 288 287 286 287 286 287 285 283 282 279 276 277 273 270 268 268 265 267 263 258 273 270 281 283 282 278 275 272